Starlink 5069

operational
NORAD ID: 55640 Int'l Des: 2023-021 Owner: SPXS Country: US Constellation: starlink
LEOCIRCULAR

Über Starlink 5069

Beschreibung wird geladen...

Live-Position

3D-Globus wird geladen...

Nächste Überflüge

Höhenverlauf

Altitude vs Time

uPlot chart will show altitude changes over time

Zweizeiliger Elementsatz

1 55640U 23021N 25303.91669556 .00000919 00000-0 84796-4 0 9995
2 55640 69.9979 151.6206 0002573 267.9719 92.1146 14.98326459149356
Epoch: 30. Okt. 2025 • Age: 12 hours

Aktueller Status

Höhe 595.4 km
Geschwindigkeit 7.56 km/s
Subsatellitenpunkt -68.52°S, 158.41°W
Startdatum 17. Feb. 2023
Alter 2.6 years
Typ internet

Technische Details

Klassifizierung Payload
Masse 305.00 kg
Trockenmasse 290.00 kg
Gesamtmasse 305.00 kg
Länge 0.20 m
Durchmesser 2.80 m
Spannweite 9.00 m
Form Box + pan
Hersteller SPXS
Bus-Typ Starlink
Phasenstatus In Orbit
Besitzer/Staat SPXS/US

Große Konstellationen

Loading constellations...